Date String (YYYY-MM-DD hh:mm:ss) UTC,Instrument flags,absolute air pressure of the measurement (hPa),sample flow rate (lpm),inlet stack bypass flow (lpm),air temperature of the measurement (°C),ambient temperature measured by the external sensor (°C),aerosol sample conditioner tube jacket temperature (°C),OPC LED temperature (°C),internal box temperature (°C),relative humidity of the measurement (%),span deviation,mass concentration of particles derived from Lorenz-Mie calculation of OPC scattering (μg/m³),mass concentration of particles derived from Lorenz-Mie calculation of OPC scattering (μg/m³),mass concentration of particles derived from Lorenz-Mie calculation of OPC scattering (μg/m³)
DateTimeUTC,F1_M11,P_M11,Q1_M11,Q2_M11,T1_M11,T2_M11,T3_M11,T4_M11,T5_M11,U1_M11,ZSPAN_M11,X2_M11,X0_M11,X1_M11
2023-12-02 04:00:00,SystemResetWarning,0820.0,4.98,000.00,019.9,018.8,000.0,028.5,021.0,11.7,0002.7,0011.51,0017.84,0010.80
2023-12-02 04:01:00,SystemResetWarning,0819.9,5.00,000.00,019.9,018.7,000.0,028.5,020.9,11.0,0003.0,0010.56,0016.61,0009.90
2023-12-02 04:02:00,SystemResetWarning,0820.3,5.00,000.00,019.8,018.7,000.0,028.4,020.9,10.4,0002.9,0009.61,0015.44,0009.04
2023-12-02 04:03:00,SystemResetWarning,0820.0,5.01,000.00,019.8,018.6,000.0,028.4,020.8,10.2,0002.5,0008.64,0013.93,0008.16
2023-12-02 04:04:00,SystemResetWarning,0820.0,5.00,000.00,019.8,018.6,000.0,028.4,020.8,10.2,0000.0,0008.06,0013.00,0007.64
2023-12-02 04:05:00,SystemResetWarning,0819.9,4.99,000.00,019.7,018.6,000.0,028.4,020.8,10.4,0000.0,0007.56,0012.07,0007.16
2023-12-02 04:06:00,SystemResetWarning,0820.2,4.99,000.00,019.7,018.6,000.0,028.3,020.8,10.4,0000.0,0007.04,0011.18,0006.65
2023-12-02 04:07:00,SystemResetWarning,0820.2,5.00,000.00,019.7,018.6,000.0,028.3,020.7,10.4,0000.0,0006.39,0009.73,0006.05
2023-12-02 04:08:00,SystemResetWarning,0819.8,5.01,000.00,019.7,018.5,000.0,028.3,020.8,10.5,0000.0,0005.78,0008.62,0005.45
2023-12-02 04:09:00,SystemResetWarning,0819.7,5.01,000.00,019.7,018.5,000.0,028.3,020.7,10.6,0000.0,0005.17,0007.92,0004.87
2023-12-02 04:10:00,SystemResetWarning,0819.8,5.01,000.00,019.6,018.5,000.0,028.3,020.7,10.1,0000.0,0004.62,0007.03,0004.37
2023-12-02 04:11:00,SystemResetWarning,0819.8,5.00,000.00,019.6,018.4,000.0,028.2,020.7,10.0,0000.0,0004.15,0006.04,0003.93
2023-12-02 04:12:00,SystemResetWarning,0819.7,5.01,000.00,019.6,018.4,000.0,028.2,020.6,10.1,0000.0,0003.69,0005.08,0003.51
2023-12-02 04:13:00,SystemResetWarning,0819.7,5.01,000.00,019.6,018.4,000.0,028.2,020.6,10.2,0000.0,0003.39,0005.10,0003.21
2023-12-02 04:14:00,SystemResetWarning,0819.8,4.98,000.00,019.5,018.4,000.0,028.2,020.6,10.0,0000.0,0003.05,0004.52,0002.74
2023-12-02 04:15:00,SystemResetWarning,0819.9,5.01,000.00,019.5,018.3,000.0,028.1,020.6,10.0,0000.0,0002.48,0003.85,0002.18
2023-12-02 04:16:00,SystemResetWarning,0820.0,5.01,000.00,019.5,018.3,000.0,028.1,020.6,10.1,0000.0,0002.19,0003.60,0001.89
2023-12-02 04:17:00,SystemResetWarning,0819.8,5.01,000.00,019.5,018.3,000.0,028.1,020.6,9.9,0000.0,0001.94,0004.51,0001.67
2023-12-02 04:18:00,SystemResetWarning,0819.8,5.00,000.00,019.5,018.3,000.0,028.1,020.6,9.7,0000.0,0001.66,0004.89,0001.41
2023-12-02 04:19:00,SystemResetWarning,0819.9,4.99,000.00,019.4,018.3,000.0,028.1,020.5,9.6,0000.0,0001.48,0004.62,0001.29
2023-12-02 04:20:00,SystemResetWarning,0820.1,5.00,000.00,019.4,018.3,000.0,028.0,020.5,9.7,0000.0,0001.41,0004.66,0001.24
2023-12-02 04:21:00,SystemResetWarning,0820.2,5.00,000.00,019.4,018.3,000.0,028.0,020.5,9.5,0000.0,0001.40,0004.65,0001.23
2023-12-02 04:22:00,SystemResetWarning,0819.9,5.00,000.00,019.4,018.3,000.0,028.0,020.4,9.5,0000.0,0001.37,0005.20,0001.21
2023-12-02 04:23:00,SystemResetWarning,0820.3,5.01,000.00,019.4,018.3,000.0,028.0,020.5,9.8,0000.0,0001.35,0006.14,0001.20
2023-12-02 04:24:00,SystemResetWarning,0820.2,5.00,000.00,019.3,018.2,000.0,028.0,020.5,10.1,0000.0,0001.36,0005.63,0001.20
2023-12-02 04:25:00,SystemResetWarning,0819.9,5.01,000.00,019.3,018.2,000.0,027.9,020.5,10.1,0000.0,0001.36,0005.61,0001.19
2023-12-02 04:26:00,SystemResetWarning,0819.9,5.00,000.00,019.3,018.3,000.0,027.9,020.5,10.0,0000.0,0001.35,0005.60,0001.18
2023-12-02 04:27:00,SystemResetWarning,0819.8,4.99,000.00,019.3,018.3,000.0,027.9,020.5,10.2,0000.0,0001.32,0005.47,0001.17
2023-12-02 04:28:00,SystemResetWarning,0819.9,4.99,000.00,019.3,018.3,000.0,027.9,020.5,10.2,0000.0,0001.31,0005.22,0001.17
2023-12-02 04:29:00,SystemResetWarning,0819.8,5.00,000.00,019.3,018.3,000.0,027.9,020.5,10.0,0000.0,0001.30,0005.44,0001.17
2023-12-02 04:30:00,SystemResetWarning,0819.9,5.01,000.00,019.3,018.3,000.0,027.9,020.5,9.7,0000.0,0001.30,0005.46,0001.16
2023-12-02 04:31:00,SystemResetWarning,0819.9,4.99,000.00,019.3,018.3,000.0,027.8,020.5,9.6,0000.0,0001.29,0005.33,0001.17
2023-12-02 04:32:00,SystemResetWarning,0819.9,5.00,000.00,019.3,018.3,000.0,027.8,020.5,9.8,0000.0,0001.29,0005.33,0001.18
2023-12-02 04:33:00,SystemResetWarning,0819.9,5.00,000.00,019.3,018.3,000.0,027.8,020.5,9.7,0000.0,0001.31,0004.78,0001.18
2023-12-02 04:34:00,SystemResetWarning,0820.0,5.01,000.00,019.3,018.3,000.0,027.8,020.5,9.8,0000.0,0001.32,0003.78,0001.19
2023-12-02 04:35:00,SystemResetWarning,0820.0,5.00,000.00,019.3,018.3,000.0,027.8,020.5,9.6,0000.0,0001.31,0003.66,0001.18
2023-12-02 04:36:00,SystemResetWarning,0820.3,5.00,000.00,019.3,018.3,000.0,027.8,020.5,9.6,0000.0,0001.30,0003.64,0001.18
2023-12-02 04:37:00,SystemResetWarning,0820.1,5.00,000.00,019.3,018.3,000.0,027.8,020.5,9.6,0000.0,0001.28,0003.60,0001.17
2023-12-02 04:38:00,SystemResetWarning,0820.1,5.00,000.00,019.3,018.3,000.0,027.8,020.5,9.5,0000.0,0001.30,0003.64,0001.18
2023-12-02 04:39:00,SystemResetWarning,0820.3,5.00,000.00,019.3,018.3,000.0,027.8,020.5,9.5,0000.0,0001.32,0003.24,0001.19
2023-12-02 04:40:00,SystemResetWarning,0820.3,5.00,000.00,019.3,018.3,000.0,027.8,020.5,9.5,0000.0,0001.34,0001.89,0001.20
2023-12-02 04:41:00,SystemResetWarning,0820.0,5.00,000.00,019.3,018.3,000.0,027.8,020.5,9.4,0000.0,0001.35,0001.79,0001.21
2023-12-02 04:42:00,SystemResetWarning,0820.1,5.00,000.00,019.3,018.3,000.0,027.7,020.5,9.7,0000.0,0001.35,0001.83,0001.20
2023-12-02 04:43:00,SystemResetWarning,0820.2,5.00,000.00,019.3,018.4,000.0,027.7,020.6,11.1,0000.0,0001.36,0001.84,0001.19
2023-12-02 04:44:00,SystemResetWarning,0819.8,5.00,000.00,019.3,018.4,000.0,027.7,020.5,13.8,0000.0,0001.35,0001.83,0001.18
2023-12-02 04:45:00,SystemResetWarning,0819.9,5.01,000.00,019.3,018.4,000.0,027.7,020.5,14.8,0000.0,0001.33,0001.81,0001.17
2023-12-02 04:46:00,SystemResetWarning,0819.9,5.00,000.00,019.3,018.4,000.0,027.7,020.5,15.0,0000.0,0001.31,0001.76,0001.16
2023-12-02 04:47:00,SystemResetWarning,0820.3,5.00,000.00,019.3,018.4,000.0,027.7,020.6,14.4,0000.0,0001.30,0001.73,0001.15
2023-12-02 04:48:00,SystemResetWarning,0820.3,5.00,000.00,019.3,018.5,000.0,027.7,020.6,13.6,0000.0,0001.27,0001.70,0001.14
2023-12-02 04:49:00,SystemResetWarning,0820.3,5.00,000.00,019.3,018.5,000.0,027.7,020.6,12.9,0000.0,0001.32,0001.77,0001.16
2023-12-02 04:50:00,SystemResetWarning,0819.9,5.00,000.00,019.3,018.5,000.0,027.7,020.7,14.0,0000.0,0002.03,0002.63,0001.77
2023-12-02 04:51:00,SystemResetWarning,0819.9,5.00,000.00,019.4,018.5,000.0,027.7,020.7,14.8,0000.0,0003.42,0004.80,0003.18
2023-12-02 04:52:00,SystemResetWarning,0819.9,5.00,000.00,019.4,018.5,000.0,027.7,020.7,13.7,0000.0,0004.53,0007.38,0004.22
2023-12-02 04:53:00,SystemResetWarning,0819.9,5.00,000.00,019.4,018.5,000.0,027.7,020.7,11.8,0000.0,0005.65,0009.09,0005.21
2023-12-02 04:54:00,SystemResetWarning,0819.8,5.00,000.00,019.4,018.5,000.0,027.7,020.7,11.1,0000.0,0006.55,0010.55,0006.02
2023-12-02 04:55:00,SystemResetWarning,0819.9,5.00,000.00,019.4,018.6,000.0,027.7,020.7,10.8,0000.0,0007.26,0011.56,0006.65
2023-12-02 04:56:00,SystemResetWarning,0819.9,5.00,000.00,019.4,018.6,000.0,027.7,020.7,11.1,0000.0,0007.87,0012.35,0007.20
2023-12-02 04:57:00,SystemResetWarning,0819.9,5.00,000.00,019.4,018.6,000.0,027.7,020.7,11.0,0001.6,0008.82,0014.37,0008.06
2023-12-02 04:58:00,SystemResetWarning,0819.9,5.00,000.00,019.4,018.6,000.0,027.7,020.7,10.7,0002.7,0009.81,0015.80,0008.93
2023-12-02 04:59:00,SystemResetWarning,0820.0,5.00,000.00,019.4,018.6,000.0,027.7,020.7,10.8,0002.5,0010.53,0016.73,0009.59
